| time (UTC) | temp C | wind direction | speed KPH | gust KPH | rain 1hr cm | rain 24hr cm | rain mn cm | humidity % | barometer mb |
| 20260507150239 | 14 | 151 | 12.9 | 16.1 | 0.00 | 0.00 | 0.00 | 51 | 1006.4 |
| 20260507145735 | 13 | 165 | 3.2 | 4.8 | 0.00 | 0.00 | 0.00 | 55 | 1006.2 |
| 20260507145232 | 13 | 264 | 6.4 | 11.3 | 0.00 | 0.00 | 0.00 | 56 | 1006.4 |
| 20260507144729 | 13 | 195 | 3.2 | 9.7 | 0.00 | 0.00 | 0.00 | 56 | 1006.3 |
| 20260507144227 | 13 | 122 | 4.8 | 6.4 | 0.00 | 0.00 | 0.00 | 57 | 1006.3 |
| 20260507143723 | 15 | 177 | 1.6 | 9.7 | 0.00 | 0.00 | 0.00 | 55 | 1006.2 |
| 20260507143220 | 14 | 197 | 6.4 | 9.7 | 0.00 | 0.00 | 0.00 | 55 | 1006.3 |
| 20260507142716 | 13 | 198 | 3.2 | 6.4 | 0.00 | 0.00 | 0.00 | 56 | 1006.2 |
| 20260507142213 | 13 | 213 | 1.6 | 6.4 | 0.00 | 0.00 | 0.00 | 59 | 1006.0 |
| 20260507141709 | 12 | 13 | 8.0 | 11.3 | 0.00 | 0.00 | 0.00 | 57 | 1006.4 |
| 20260507141206 | 13 | 270 | 3.2 | 14.5 | 0.00 | 0.00 | 0.00 | 58 | 1006.3 |
| 20260507140702 | 13 | 245 | 4.8 | 11.3 | 0.00 | 0.00 | 0.00 | 56 | 1006.3 |
| 20260507140200 | 12 | 141 | 3.2 | 4.8 | 0.00 | 0.00 | 0.00 | 57 | 1006.3 |
| 20260507135657 | 12 | 172 | 6.4 | 11.3 | 0.00 | 0.00 | 0.00 | 58 | 1006.3 |
| 20260507135154 | 12 | 211 | 6.4 | 12.9 | 0.00 | 0.00 | 0.00 | 61 | 1006.3 |
| 20260507134650 | 12 | 271 | 6.4 | 12.9 | 0.00 | 0.00 | 0.00 | 58 | 1006.2 |
| 20260507134147 | 13 | 247 | 4.8 | 4.8 | 0.00 | 0.00 | 0.00 | 58 | 1006.1 |
| 20260507133643 | 13 | 357 | 3.2 | 12.9 | 0.00 | 0.00 | 0.00 | 56 | 1006.2 |
| 20260507133140 | 12 | 334 | 4.8 | 12.9 | 0.00 | 0.00 | 0.00 | 56 | 1006.4 |
| 20260507132637 | 12 | 287 | 9.7 | 14.5 | 0.00 | 0.00 | 0.00 | 57 | 1006.5 |
| 20260507132133 | 13 | 214 | 1.6 | 11.3 | 0.00 | 0.00 | 0.00 | 59 | 1006.5 |
| 20260507131630 | 13 | 252 | 4.8 | 6.4 | 0.00 | 0.00 | 0.00 | 60 | 1006.4 |
| 20260507131128 | 12 | 101 | 0.0 | 3.2 | 0.00 | 0.00 | 0.00 | 60 | 1006.8 |
| 20260507130624 | 12 | 66 | 3.2 | 4.8 | 0.00 | 0.00 | 0.00 | 59 | 1006.8 |
| 20260507130122 | 12 | 358 | 3.2 | 6.4 | 0.00 | 0.00 | 0.00 | 62 | 1006.6 |
| 20260507125621 | 12 | 298 | 3.2 | 9.7 | 0.00 | 0.00 | 0.00 | 63 | 1006.5 |
| 20260507125118 | 12 | 275 | 6.4 | 9.7 | 0.00 | 0.00 | 0.00 | 65 | 1006.6 |
| 20260507124614 | 12 | 319 | 3.2 | 4.8 | 0.00 | 0.00 | 0.00 | 65 | 1006.6 |
| 20260507124112 | 11 | 55 | 0.0 | 3.2 | 0.00 | 0.00 | 0.00 | 66 | 1006.3 |
| 20260507123610 | 11 | 60 | 3.2 | 9.7 | 0.00 | 0.00 | 0.00 | 67 | 1006.6 |
| 20260507123107 | 11 | 59 | 1.6 | 11.3 | 0.00 | 0.00 | 0.00 | 67 | 1006.6 |
| 20260507122602 | 11 | 134 | 0.0 | 6.4 | 0.00 | 0.00 | 0.00 | 67 | 1006.5 |
| 20260507122058 | 11 | 302 | 6.4 | 9.7 | 0.00 | 0.00 | 0.00 | 66 | 1006.8 |
| 20260507121554 | 11 | 308 | 1.6 | 4.8 | 0.00 | 0.00 | 0.00 | 69 | 1006.7 |
| 20260507121050 | 11 | 65 | 3.2 | 4.8 | 0.00 | 0.00 | 0.00 | 70 | 1006.9 |
| 20260507120546 | 10 | 140 | 1.6 | 6.4 | 0.00 | 0.00 | 0.00 | 71 | 1006.9 |
| 20260507120043 | 10 | 32 | 4.8 | 9.7 | 0.00 | 0.00 | 0.00 | 72 | 1007.1 |
| 20260507115539 | 10 | 70 | 0.0 | 9.7 | 0.00 | 0.00 | 0.00 | 73 | 1007.0 |
| 20260507115035 | 10 | 290 | 6.4 | 9.7 | 0.00 | 0.00 | 0.00 | 75 | 1006.9 |
| 20260507114531 | 10 | 259 | 4.8 | 4.8 | 0.00 | 0.00 | 0.00 | 75 | 1006.8 |
| 20260507114029 | 10 | 43 | 3.2 | 3.2 | 0.00 | 0.00 | 0.00 | 76 | 1006.5 |
| 20260507113526 | 10 | 35 | 3.2 | 4.8 | 0.00 | 0.00 | 0.00 | 75 | 1006.3 |
| 20260507113023 | 10 | 129 | 0.0 | 0.0 | 0.00 | 0.00 | 0.00 | 79 | 1006.8 |
| 20260507112521 | 9 | 120 | 0.0 | 0.0 | 0.00 | 0.00 | 0.00 | 81 | 1006.8 |
| 20260507112017 | 8 | 99 | 0.0 | 1.6 | 0.00 | 0.00 | 0.00 | 83 | 1006.7 |
| 20260507111514 | 8 | 125 | 0.0 | 1.6 | 0.00 | 0.00 | 0.00 | 83 | 1006.8 |
| 20260507111011 | 8 | 129 | 1.6 | 1.6 | 0.00 | 0.00 | 0.00 | 83 | 1006.8 |
| 20260507110508 | 8 | 160 | 0.0 | 0.0 | 0.00 | 0.00 | 0.00 | 83 | 1006.5 |
| 20260507110004 | 8 | 1 | 1.6 | 3.2 | 0.00 | 0.00 | 0.00 | 83 | 1006.5 |
| 20260507105500 | 8 | 125 | 1.6 | 3.2 | 0.00 | 0.00 | 0.00 | 83 | 1006.3 |
| 20260507104957 | 8 | 127 | 0.0 | 3.2 | 0.00 | 0.00 | 0.00 | 83 | 1006.3 |
| 20260507104454 | 8 | 29 | 1.6 | 1.6 | 0.00 | 0.00 | 0.00 | 82 | 1006.3 |
| 20260507103950 | 8 | 238 | 0.0 | 0.0 | 0.00 | 0.00 | 0.00 | 83 | 1006.4 |
| 20260507103447 | 8 | 172 | 0.0 | 1.6 | 0.00 | 0.00 | 0.00 | 84 | 1006.3 |
| 20260507102943 | 8 | 193 | 0.0 | 3.2 | 0.00 | 0.00 | 0.00 | 84 | 1006.3 |
| 20260507102440 | 8 | 162 | 0.0 | 0.0 | 0.00 | 0.00 | 0.00 | 84 | 1006.3 |
| 20260507101936 | 8 | 88 | 0.0 | 1.6 | 0.00 | 0.00 | 0.00 | 84 | 1006.1 |
| 20260507101431 | 8 | 152 | 0.0 | 0.0 | 0.00 | 0.00 | 0.00 | 84 | 1006.2 |
| 20260507100928 | 8 | 177 | 0.0 | 1.6 | 0.00 | 0.00 | 0.00 | 85 | 1006.3 |
| 20260507100426 | 8 | 96 | 0.0 | 1.6 | 0.00 | 0.00 | 0.00 | 84 | 1005.7 |
| 20260507095924 | 8 | 116 | 1.6 | 1.6 | 0.00 | 0.00 | 0.00 | 84 | 1005.7 |
| 20260507095421 | 8 | 147 | 0.0 | 4.8 | 0.00 | 0.00 | 0.00 | 84 | 1006.3 |
| 20260507094918 | 8 | 66 | 1.6 | 1.6 | 0.00 | 0.00 | 0.00 | 84 | 1006.3 |
| 20260507094414 | 8 | 169 | 1.6 | 4.8 | 0.00 | 0.00 | 0.00 | 84 | 1006.3 |
| 20260507093911 | 8 | 248 | 1.6 | 4.8 | 0.00 | 0.00 | 0.00 | 84 | 1006.1 |
| 20260507093409 | 8 | 294 | 6.4 | 6.4 | 0.00 | 0.00 | 0.00 | 84 | 1006.2 |
| 20260507092907 | 8 | 295 | 3.2 | 4.8 | 0.00 | 0.00 | 0.00 | 84 | 1006.2 |
| 20260507092403 | 8 | 139 | 0.0 | 1.6 | 0.00 | 0.00 | 0.00 | 83 | 1006.4 |
| 20260507091900 | 8 | 345 | 4.8 | 6.4 | 0.00 | 0.00 | 0.00 | 82 | 1006.1 |
| 20260507091356 | 8 | 298 | 1.6 | 3.2 | 0.00 | 0.00 | 0.00 | 82 | 1006.4 |
| 20260507090852 | 8 | 220 | 1.6 | 3.2 | 0.00 | 0.00 | 0.00 | 82 | 1006.5 |
| 20260507090348 | 8 | 255 | 3.2 | 4.8 | 0.00 | 0.00 | 0.00 | 81 | 1006.5 |
| 20260507085845 | 8 | 172 | 1.6 | 3.2 | 0.00 | 0.00 | 0.00 | 80 | 1006.5 |
| 20260507085342 | 8 | 153 | 0.0 | 1.6 | 0.00 | 0.00 | 0.00 | 80 | 1006.4 |
| 20260507084840 | 8 | 122 | 0.0 | 0.0 | 0.00 | 0.00 | 0.00 | 80 | 1006.2 |
| 20260507084335 | 8 | 32 | 1.6 | 6.4 | 0.00 | 0.00 | 0.00 | 79 | 1006.1 |
| 20260507083833 | 8 | 233 | 3.2 | 6.4 | 0.00 | 0.00 | 0.00 | 81 | 1006.1 |
| 20260507083330 | 8 | 170 | 3.2 | 3.2 | 0.00 | 0.00 | 0.00 | 82 | 1006.1 |
| 20260507082826 | 8 | 170 | 1.6 | 3.2 | 0.00 | 0.00 | 0.00 | 82 | 1005.9 |
| 20260507082321 | 8 | 144 | 0.0 | 3.2 | 0.00 | 0.00 | 0.00 | 83 | 1006.0 |
| 20260507081819 | 8 | 315 | 3.2 | 4.8 | 0.00 | 0.00 | 0.00 | 82 | 1005.7 |
| 20260507081315 | 8 | 185 | 1.6 | 3.2 | 0.00 | 0.00 | 0.00 | 82 | 1005.6 |
| 20260507080812 | 8 | 317 | 1.6 | 3.2 | 0.00 | 0.00 | 0.00 | 82 | 1005.7 |
| 20260507080308 | 9 | 149 | 1.6 | 11.3 | 0.00 | 0.00 | 0.00 | 82 | 1005.5 |
| 20260507075803 | 9 | 133 | 1.6 | 4.8 | 0.00 | 0.00 | 0.00 | 81 | 1005.4 |
| 20260507075259 | 9 | 314 | 3.2 | 4.8 | 0.00 | 0.00 | 0.00 | 81 | 1006.0 |
| 20260507074756 | 9 | 249 | 3.2 | 6.4 | 0.00 | 0.00 | 0.00 | 81 | 1006.2 |
| 20260507074254 | 9 | 144 | 0.0 | 3.2 | 0.00 | 0.00 | 0.00 | 81 | 1006.1 |
| 20260507073751 | 9 | 204 | 0.0 | 4.8 | 0.00 | 0.00 | 0.00 | 80 | 1005.9 |
| 20260507073247 | 9 | 328 | 4.8 | 6.4 | 0.00 | 0.00 | 0.00 | 80 | 1005.7 |
| 20260507072745 | 9 | 15 | 9.7 | 16.1 | 0.00 | 0.00 | 0.00 | 80 | 1005.9 |
| 20260507072242 | 9 | 241 | 0.0 | 3.2 | 0.00 | 0.00 | 0.00 | 81 | 1005.3 |
| 20260507071740 | 9 | 164 | 1.6 | 9.7 | 0.00 | 0.00 | 0.00 | 80 | 1005.3 |
| 20260507071236 | 9 | 301 | 4.8 | 12.9 | 0.00 | 0.00 | 0.00 | 81 | 1005.2 |
| 20260507070733 | 9 | 215 | 1.6 | 6.4 | 0.00 | 0.00 | 0.00 | 82 | 1005.5 |
| 20260507070230 | 9 | 214 | 1.6 | 3.2 | 0.00 | 0.00 | 0.00 | 83 | 1005.4 |
| 20260507065726 | 9 | 349 | 3.2 | 3.2 | 0.00 | 0.00 | 0.00 | 84 | 1005.4 |
| 20260507065223 | 9 | 345 | 3.2 | 12.9 | 0.00 | 0.00 | 0.00 | 85 | 1005.4 |
| 20260507064720 | 9 | 203 | 3.2 | 14.5 | 0.00 | 0.00 | 0.00 | 86 | 1005.2 |
| 20260507064220 | 9 | 306 | 6.4 | 9.7 | 0.00 | 0.00 | 0.00 | 87 | 1005.2 |
| 20260507063716 | 9 | 197 | 1.6 | 3.2 | 0.00 | 0.00 | 0.00 | 87 | 1005.4 |
| 20260507063213 | 9 | 85 | 0.0 | 3.2 | 0.00 | 0.00 | 0.00 | 87 | 1005.3 |
| 20260507062710 | 9 | 107 | 0.0 | 0.0 | 0.00 | 0.00 | 0.00 | 86 | 1005.1 |
| 20260507062208 | 10 | 84 | 1.6 | 3.2 | 0.00 | 0.00 | 0.00 | 86 | 1005.3 |
| 20260507061705 | 10 | 18 | 0.0 | 1.6 | 0.00 | 0.00 | 0.00 | 86 | 1005.4 |
| 20260507061203 | 10 | 212 | 1.6 | 4.8 | 0.00 | 0.00 | 0.00 | 85 | 1005.6 |
| 20260507060701 | 10 | 326 | 1.6 | 3.2 | 0.00 | 0.00 | 0.00 | 85 | 1005.3 |
| 20260507060157 | 10 | 308 | 1.6 | 3.2 | 0.00 | 0.00 | 0.00 | 85 | 1005.4 |
| 20260507055653 | 10 | 357 | 1.6 | 1.6 | 0.00 | 0.00 | 0.00 | 85 | 1005.5 |
| 20260507055149 | 10 | 149 | 0.0 | 3.2 | 0.00 | 0.00 | 0.00 | 85 | 1005.7 |
| 20260507054645 | 10 | 341 | 3.2 | 4.8 | 0.00 | 0.00 | 0.00 | 85 | 1006.1 |
| 20260507054142 | 10 | 327 | 3.2 | 4.8 | 0.00 | 0.00 | 0.00 | 85 | 1005.6 |
| 20260507053640 | 10 | 251 | 1.6 | 6.4 | 0.00 | 0.00 | 0.00 | 85 | 1005.4 |
| 20260507053138 | 10 | 264 | 4.8 | 11.3 | 0.00 | 0.00 | 0.00 | 85 | 1005.4 |
| 20260507052636 | 10 | 294 | 4.8 | 6.4 | 0.00 | 0.00 | 0.00 | 86 | 1005.5 |
| 20260507052132 | 10 | 259 | 4.8 | 4.8 | 0.00 | 0.00 | 0.00 | 86 | 1005.9 |
| 20260507051630 | 10 | 183 | 1.6 | 6.4 | 0.00 | 0.00 | 0.00 | 86 | 1005.7 |
| 20260507051126 | 10 | 307 | 6.4 | 11.3 | 0.00 | 0.00 | 0.00 | 87 | 1005.7 |
| 20260507050623 | 10 | 295 | 4.8 | 9.7 | 0.00 | 0.00 | 0.00 | 87 | 1005.9 |
| 20260507050120 | 10 | 298 | 3.2 | 4.8 | 0.00 | 0.00 | 0.00 | 87 | 1005.4 |
| 20260507045617 | 10 | 240 | 3.2 | 4.8 | 0.00 | 0.00 | 0.00 | 87 | 1005.2 |
| 20260507045114 | 10 | 199 | 6.4 | 11.3 | 0.00 | 0.00 | 0.00 | 86 | 1005.3 |
| 20260507044610 | 10 | 319 | 4.8 | 6.4 | 0.00 | 0.00 | 0.00 | 87 | 1005.3 |
| 20260507044108 | 10 | 252 | 4.8 | 6.4 | 0.00 | 0.00 | 0.00 | 88 | 1005.6 |
| 20260507043603 | 10 | 109 | 0.0 | 3.2 | 0.00 | 0.00 | 0.00 | 88 | 1005.4 |
| 20260507043100 | 10 | 269 | 9.7 | 12.9 | 0.00 | 0.00 | 0.00 | 88 | 1005.7 |
| 20260507042556 | 10 | 70 | 1.6 | 4.8 | 0.00 | 0.00 | 0.00 | 89 | 1005.9 |
| 20260507042052 | 10 | 312 | 3.2 | 11.3 | 0.00 | 0.00 | 0.00 | 90 | 1006.0 |
| 20260507041549 | 10 | 107 | 1.6 | 3.2 | 0.00 | 0.00 | 0.00 | 90 | 1005.7 |
| 20260507041046 | 10 | 141 | 0.0 | 1.6 | 0.00 | 0.00 | 0.00 | 90 | 1005.6 |
| 20260507040542 | 10 | 271 | 4.8 | 6.4 | 0.00 | 0.00 | 0.00 | 90 | 1005.3 |
| 20260507040039 | 10 | 266 | 4.8 | 6.4 | 0.00 | 0.51 | 0.51 | 90 | 1005.5 |
| 20260507035535 | 11 | 76 | 1.6 | 4.8 | 0.00 | 0.51 | 0.51 | 90 | 1005.4 |
| 20260507035031 | 11 | 242 | 4.8 | 6.4 | 0.00 | 0.51 | 0.51 | 90 | 1005.4 |
| 20260507034528 | 11 | 117 | 0.0 | 3.2 | 0.00 | 0.51 | 0.51 | 90 | 1005.5 |
| 20260507034026 | 11 | 69 | 1.6 | 6.4 | 0.00 | 0.51 | 0.51 | 91 | 1005.2 |
| 20260507033524 | 11 | 282 | 4.8 | 6.4 | 0.00 | 0.51 | 0.51 | 91 | 1005.2 |
| 20260507033021 | 11 | 330 | 4.8 | 9.7 | 0.00 | 0.51 | 0.51 | 92 | 1005.3 |
| 20260507032518 | 11 | 323 | 6.4 | 9.7 | 0.00 | 0.51 | 0.51 | 92 | 1005.2 |
| 20260507032014 | 11 | 38 | 1.6 | 3.2 | 0.00 | 0.51 | 0.51 | 92 | 1005.2 |
| 20260507031510 | 12 | 126 | 1.6 | 4.8 | 0.00 | 0.51 | 0.51 | 92 | 1005.1 |
| 20260507031008 | 12 | 307 | 3.2 | 6.4 | 0.13 | 0.51 | 0.51 | 91 | 1004.8 |
| 20260507030504 | 12 | 273 | 6.4 | 11.3 | 0.13 | 0.51 | 0.51 | 91 | 1004.7 |
| 20260507030002 | 13 | 274 | 14.5 | 16.1 | 0.18 | 0.48 | 0.48 | 91 | 1005.0 |
| 20260507025458 | 13 | 45 | 1.6 | 6.4 | 0.00 | 0.46 | 0.46 | 91 | 1004.9 |
| 20260507024956 | 13 | 324 | 4.8 | 4.8 | 0.00 | 0.46 | 0.46 | 92 | 1005.1 |
| 20260507024453 | 13 | 304 | 9.7 | 14.5 | 0.00 | 0.46 | 0.46 | 92 | 1005.1 |
| 20260507023949 | 13 | 75 | 1.6 | 6.4 | 0.13 | 0.46 | 0.46 | 93 | 1004.7 |
| 20260507023446 | 13 | 302 | 8.0 | 11.3 | 0.13 | 0.46 | 0.46 | 93 | 1004.6 |
| 20260507022943 | 14 | 10 | 3.2 | 6.4 | 0.00 | 0.43 | 0.43 | 94 | 1004.5 |
| 20260507022441 | 14 | 295 | 4.8 | 6.4 | 0.00 | 0.43 | 0.43 | 94 | 1004.4 |
| 20260507021936 | 15 | 66 | 1.6 | 3.2 | 0.00 | 0.43 | 0.43 | 94 | 1004.1 |
| 20260507021431 | 15 | 302 | 3.2 | 4.8 | 0.00 | 0.43 | 0.43 | 95 | 1003.9 |
| 20260507020929 | 15 | 337 | 3.2 | 4.8 | 0.00 | 0.43 | 0.43 | 95 | 1004.0 |
| 20260507020426 | 15 | 260 | 3.2 | 6.4 | 0.00 | 0.43 | 0.43 | 95 | 1004.0 |
| 20260507015923 | 15 | 145 | 3.2 | 6.4 | 0.00 | 0.43 | 0.43 | 94 | 1003.7 |
| 20260507015421 | 15 | 112 | 0.0 | 3.2 | 0.00 | 0.43 | 0.43 | 94 | 1003.9 |
| 20260507014918 | 15 | 155 | 0.0 | 1.6 | 0.00 | 0.43 | 0.43 | 94 | 1003.7 |
| 20260507014414 | 15 | 164 | 1.6 | 4.8 | 0.00 | 0.43 | 0.43 | 94 | 1003.6 |
| 20260507013910 | 15 | 199 | 1.6 | 4.8 | 0.00 | 0.43 | 0.43 | 94 | 1003.7 |
| 20260507013408 | 15 | 43 | 3.2 | 4.8 | 0.00 | 0.43 | 0.43 | 94 | 1003.8 |
| 20260507012905 | 15 | 99 | 3.2 | 4.8 | 0.00 | 0.43 | 0.43 | 94 | 1003.6 |
| 20260507012401 | 15 | 207 | 0.0 | 3.2 | 0.00 | 0.43 | 0.43 | 94 | 1003.9 |
| 20260507011859 | 15 | 213 | 1.6 | 4.8 | 0.00 | 0.43 | 0.43 | 94 | 1003.6 |
| 20260507011355 | 15 | 164 | 0.0 | 1.6 | 0.00 | 0.43 | 0.43 | 94 | 1003.8 |
| 20260507010855 | 15 | 186 | 1.6 | 4.8 | 0.00 | 0.43 | 0.43 | 94 | 1003.6 |
| 20260507010351 | 15 | 172 | 0.0 | 1.6 | 0.00 | 0.43 | 0.43 | 94 | 1003.8 |
| 20260507005848 | 15 | 134 | 0.0 | 3.2 | 0.00 | 0.43 | 0.43 | 94 | 1003.7 |
| 20260507005345 | 15 | 188 | 1.6 | 3.2 | 0.00 | 0.43 | 0.43 | 94 | 1003.8 |
| 20260507004842 | 15 | 194 | 4.8 | 6.4 | 0.00 | 0.43 | 0.43 | 94 | 1003.7 |
| 20260507004339 | 15 | 116 | 1.6 | 3.2 | 0.00 | 0.43 | 0.43 | 94 | 1003.7 |
| 20260507003836 | 15 | 141 | 0.0 | 1.6 | 0.00 | 0.43 | 0.43 | 94 | 1003.5 |
| 20260507003331 | 15 | 77 | 3.2 | 4.8 | 0.00 | 0.43 | 0.43 | 94 | 1003.5 |
| 20260507002826 | 15 | 124 | 0.0 | 1.6 | 0.00 | 0.43 | 0.43 | 94 | 1003.6 |
| 20260507002323 | 15 | 181 | 1.6 | 4.8 | 0.00 | 0.43 | 0.43 | 94 | 1003.6 |
| 20260507001820 | 15 | 225 | 1.6 | 4.8 | 0.00 | 0.43 | 0.43 | 94 | 1003.5 |
| 20260507001317 | 15 | 120 | 0.0 | 3.2 | 0.00 | 0.43 | 0.43 | 94 | 1003.5 |
| 20260507000813 | 15 | 59 | 1.6 | 1.6 | 0.00 | 0.43 | 0.43 | 94 | 1003.3 |
| 20260507000309 | 15 | 153 | 6.4 | 9.7 | 0.00 | 0.43 | 0.43 | 94 | 1003.2 |
| 20260506235806 | 15 | 210 | 6.4 | 11.3 | 0.00 | 0.43 | 0.43 | 94 | 1003.2 |
| 20260506235306 | 15 | 129 | 0.0 | 9.7 | 0.00 | 0.43 | 0.43 | 94 | 1002.9 |
| 20260506234759 | 15 | 144 | 1.6 | 9.7 | 0.00 | 0.43 | 0.43 | 94 | 1003.2 |
| 20260506234256 | 15 | 170 | 4.8 | 4.8 | 0.00 | 0.43 | 0.43 | 94 | 1003.3 |
| 20260506233754 | 15 | 218 | 4.8 | 6.4 | 0.00 | 0.43 | 0.43 | 94 | 1003.2 |
| 20260506233250 | 15 | 187 | 1.6 | 9.7 | 0.00 | 0.43 | 0.43 | 94 | 1003.2 |
| 20260506232747 | 15 | 162 | 4.8 | 6.4 | 0.00 | 0.43 | 0.43 | 94 | 1003.3 |
| 20260506232241 | 15 | 203 | 6.4 | 11.3 | 0.00 | 0.43 | 0.43 | 93 | 1003.4 |
| 20260506231739 | 15 | 234 | 9.7 | 12.9 | 0.00 | 0.43 | 0.43 | 93 | 1003.4 |
| 20260506231238 | 15 | 143 | 1.6 | 4.8 | 0.00 | 0.43 | 0.43 | 93 | 1003.3 |
| 20260506230734 | 15 | 173 | 0.0 | 6.4 | 0.00 | 0.43 | 0.43 | 93 | 1003.3 |
| 20260506230231 | 15 | 133 | 1.6 | 3.2 | 0.00 | 0.43 | 0.43 | 93 | 1003.4 |
| 20260506225727 | 15 | 157 | 1.6 | 4.8 | 0.00 | 0.43 | 0.43 | 93 | 1003.5 |
| 20260506225225 | 15 | 218 | 3.2 | 4.8 | 0.00 | 0.43 | 0.43 | 93 | 1003.7 |
| 20260506224721 | 15 | 166 | 1.6 | 6.4 | 0.00 | 0.43 | 0.43 | 93 | 1003.5 |
| 20260506224218 | 15 | 173 | 1.6 | 9.7 | 0.00 | 0.43 | 0.43 | 93 | 1003.4 |
| 20260506223714 | 15 | 142 | 0.0 | 6.4 | 0.00 | 0.43 | 0.43 | 93 | 1003.7 |
| 20260506223210 | 15 | 169 | 1.6 | 9.7 | 0.00 | 0.43 | 0.43 | 93 | 1003.5 |
| 20260506222707 | 15 | 217 | 1.6 | 4.8 | 0.00 | 0.43 | 0.43 | 93 | 1003.5 |
| 20260506222202 | 15 | 170 | 6.4 | 11.3 | 0.00 | 0.43 | 0.43 | 93 | 1003.6 |
| 20260506221701 | 15 | 48 | 3.2 | 9.7 | 0.00 | 0.43 | 0.43 | 93 | 1003.6 |
| 20260506221159 | 15 | 116 | 3.2 | 6.4 | 0.00 | 0.43 | 0.43 | 93 | 1003.7 |
| 20260506220655 | 15 | 115 | 1.6 | 11.3 | 0.00 | 0.43 | 0.43 | 93 | 1003.9 |
| 20260506220150 | 15 | 188 | 4.8 | 6.4 | 0.00 | 0.43 | 0.43 | 94 | 1003.8 |
| 20260506215647 | 15 | 118 | 3.2 | 9.7 | 0.18 | 0.43 | 0.43 | 93 | 1003.8 |
| 20260506215142 | 15 | 176 | 4.8 | 6.4 | 0.18 | 0.43 | 0.43 | 93 | 1003.7 |
| 20260506214639 | 15 | 115 | 1.6 | 6.4 | 0.00 | 0.41 | 0.41 | 93 | 1003.9 |
| 20260506214137 | 15 | 150 | 3.2 | 4.8 | 0.00 | 0.41 | 0.41 | 93 | 1003.9 |
| 20260506213635 | 15 | 125 | 6.4 | 14.5 | 0.00 | 0.41 | 0.41 | 93 | 1003.8 |
| 20260506213132 | 15 | 202 | 9.7 | 11.3 | 0.00 | 0.41 | 0.41 | 93 | 1003.9 |
| 20260506212629 | 15 | 94 | 3.2 | 4.8 | 0.00 | 0.41 | 0.41 | 93 | 1003.9 |
| 20260506212124 | 15 | 194 | 3.2 | 9.7 | 0.13 | 0.41 | 0.41 | 92 | 1003.8 |
| 20260506211620 | 15 | 82 | 3.2 | 11.3 | 0.13 | 0.41 | 0.41 | 92 | 1003.9 |
| 20260506211117 | 15 | 156 | 3.2 | 6.4 | 0.18 | 0.38 | 0.38 | 92 | 1004.1 |
| 20260506210614 | 16 | 209 | 3.2 | 16.1 | 0.18 | 0.38 | 0.38 | 92 | 1004.0 |
| 20260506210110 | 16 | 202 | 8.0 | 16.1 | 0.00 | 0.36 | 0.36 | 92 | 1004.2 |
| 20260506205607 | 16 | 65 | 1.6 | 4.8 | 0.00 | 0.36 | 0.36 | 92 | 1004.1 |
| 20260506205102 | 16 | 170 | 8.0 | 11.3 | 0.00 | 0.36 | 0.36 | 92 | 1004.2 |
| 20260506204600 | 16 | 176 | 3.2 | 9.7 | 0.00 | 0.36 | 0.36 | 92 | 1004.1 |
| 20260506204057 | 16 | 216 | 1.6 | 12.9 | 0.13 | 0.36 | 0.36 | 91 | 1004.4 |
| 20260506203555 | 16 | 129 | 0.0 | 6.4 | 0.13 | 0.36 | 0.36 | 91 | 1004.3 |
| 20260506203051 | 16 | 93 | 4.8 | 9.7 | 0.00 | 0.33 | 0.33 | 91 | 1004.2 |
| 20260506202549 | 16 | 198 | 6.4 | 9.7 | 0.00 | 0.33 | 0.33 | 91 | 1004.3 |
| 20260506202045 | 16 | 130 | 3.2 | 3.2 | 0.00 | 0.33 | 0.33 | 92 | 1004.3 |
| 20260506201543 | 16 | 187 | 3.2 | 6.4 | 0.00 | 0.33 | 0.33 | 91 | 1004.2 |
| 20260506201040 | 16 | 214 | 3.2 | 6.4 | 0.00 | 0.33 | 0.33 | 91 | 1004.4 |
| 20260506200536 | 16 | 152 | 3.2 | 4.8 | 0.18 | 0.33 | 0.33 | 91 | 1004.3 |
| 20260506200033 | 16 | 121 | 1.6 | 4.8 | 0.30 | 0.33 | 0.33 | 90 | 1004.5 |
| 20260506195529 | 16 | 146 | 0.0 | 3.2 | 0.13 | 0.30 | 0.30 | 90 | 1004.5 |
| 20260506195026 | 16 | 178 | 0.0 | 1.6 | 0.00 | 0.28 | 0.28 | 89 | 1004.7 |
| 20260506194524 | 16 | 259 | 1.6 | 4.8 | 0.00 | 0.28 | 0.28 | 89 | 1004.6 |
| 20260506194020 | 16 | 223 | 6.4 | 11.3 | 0.00 | 0.28 | 0.28 | 89 | 1004.6 |
| 20260506193517 | 16 | 143 | 1.6 | 4.8 | 0.00 | 0.28 | 0.28 | 89 | 1004.6 |
| 20260506193014 | 16 | 144 | 0.0 | 4.8 | 0.00 | 0.28 | 0.28 | 90 | 1004.4 |
| 20260506192511 | 16 | 199 | 4.8 | 6.4 | 0.00 | 0.28 | 0.28 | 90 | 1004.4 |
| 20260506192007 | 16 | 178 | 0.0 | 1.6 | 0.00 | 0.28 | 0.28 | 91 | 1004.4 |
| 20260506191504 | 16 | 105 | 0.0 | 3.2 | 0.00 | 0.28 | 0.28 | 91 | 1004.2 |
| 20260506191000 | 16 | 170 | 0.0 | 1.6 | 0.00 | 0.28 | 0.28 | 90 | 1004.2 |
| 20260506190457 | 16 | 84 | 0.0 | 1.6 | 0.00 | 0.28 | 0.28 | 90 | 1004.6 |
| 20260506185954 | 16 | 139 | 0.0 | 1.6 | 0.18 | 0.28 | 0.28 | 89 | 1004.5 |
| 20260506185451 | 16 | 112 | 0.0 | 0.0 | 0.18 | 0.28 | 0.28 | 89 | 1004.5 |
| 20260506184948 | 16 | 106 | 0.0 | 1.6 | 0.18 | 0.25 | 0.25 | 89 | 1004.7 |
| 20260506184445 | 16 | 165 | 0.0 | 6.4 | 0.18 | 0.25 | 0.25 | 88 | 1004.7 |
| 20260506183942 | 16 | 95 | 0.0 | 0.0 | 0.13 | 0.23 | 0.23 | 88 | 1005.0 |
| 20260506183437 | 17 | 172 | 3.2 | 4.8 | 0.18 | 0.20 | 0.20 | 87 | 1005.1 |
| 20260506182935 | 17 | 128 | 1.6 | 3.2 | 0.30 | 0.20 | 0.20 | 87 | 1005.1 |
| 20260506182432 | 17 | 148 | 0.0 | 1.6 | 0.13 | 0.18 | 0.18 | 86 | 1005.1 |
| 20260506181929 | 17 | 125 | 0.0 | 0.0 | 0.18 | 0.15 | 0.15 | 86 | 1005.4 |
| 20260506181427 | 17 | 159 | 0.0 | 1.6 | 0.30 | 0.15 | 0.15 | 84 | 1005.4 |
| 20260506180924 | 17 | 117 | 1.6 | 3.2 | 0.30 | 0.13 | 0.13 | 83 | 1005.4 |
| 20260506180420 | 17 | 295 | 1.6 | 3.2 | 0.30 | 0.10 | 0.10 | 81 | 1005.4 |
| 20260506175917 | 17 | 130 | 1.6 | 1.6 | 0.30 | 0.08 | 0.08 | 79 | 1005.5 |
| 20260506175414 | 18 | 302 | 1.6 | 3.2 | 0.18 | 0.05 | 0.05 | 76 | 1005.6 |
| 20260506174910 | 18 | 148 | 1.6 | 6.4 | 0.13 | 0.03 | 0.03 | 74 | 1005.7 |
| 20260506174408 | 20 | 262 | 3.2 | 12.9 | 0.00 | 0.00 | 0.00 | 69 | 1005.7 |
| 20260506173905 | 20 | 125 | 1.6 | 9.7 | 0.00 | 0.00 | 0.00 | 66 | 1005.5 |
| 20260506173402 | 20 | 138 | 3.2 | 22.5 | 0.00 | 0.00 | 0.00 | 62 | 1005.2 |
| 20260506172859 | 21 | 6 | 3.2 | 9.7 | 0.00 | 0.00 | 0.00 | 61 | 1005.3 |
| 20260506172355 | 21 | 260 | 3.2 | 9.7 | 0.00 | 0.00 | 0.00 | 61 | 1005.1 |
| 20260506171853 | 21 | 93 | 4.8 | 6.4 | 0.00 | 0.00 | 0.00 | 59 | 1005.0 |
| 20260506171350 | 21 | 78 | 1.6 | 12.9 | 0.00 | 0.00 | 0.00 | 58 | 1005.0 |
| 20260506170847 | 21 | 76 | 1.6 | 6.4 | 0.00 | 0.00 | 0.00 | 59 | 1005.1 |
| 20260506170343 | 21 | 89 | 3.2 | 6.4 | 0.00 | 0.00 | 0.00 | 59 | 1004.9 |
| 20260506165837 | 21 | 207 | 3.2 | 4.8 | 0.00 | 0.00 | 0.00 | 61 | 1005.1 |
| 20260506165334 | 21 | 155 | 1.6 | 4.8 | 0.00 | 0.00 | 0.00 | 61 | 1005.3 |
| 20260506164830 | 21 | 237 | 9.7 | 12.9 | 0.00 | 0.00 | 0.00 | 60 | 1005.2 |
| 20260506164327 | 21 | 202 | 11.3 | 16.1 | 0.00 | 0.00 | 0.00 | 59 | 1005.4 |
| 20260506163825 | 21 | 160 | 1.6 | 4.8 | 0.00 | 0.00 | 0.00 | 60 | 1005.3 |
| 20260506163319 | 21 | 182 | 9.7 | 14.5 | 0.00 | 0.00 | 0.00 | 60 | 1005.4 |
| 20260506162815 | 21 | 134 | 1.6 | 12.9 | 0.00 | 0.00 | 0.00 | 60 | 1005.4 |
| 20260506162313 | 21 | 118 | 0.0 | 3.2 | 0.00 | 0.00 | 0.00 | 61 | 1005.5 |
| 20260506161805 | 21 | 209 | 3.2 | 6.4 | 0.00 | 0.00 | 0.00 | 61 | 1005.5 |
| 20260506161302 | 21 | 166 | 4.8 | 12.9 | 0.00 | 0.00 | 0.00 | 60 | 1005.6 |
| 20260506160759 | 21 | 186 | 1.6 | 11.3 | 0.00 | 0.00 | 0.00 | 62 | 1006.0 |
| 20260506160256 | 21 | 89 | 3.2 | 14.5 | 0.00 | 0.00 | 0.00 | 61 | 1006.1 |
| 20260506155755 | 21 | 121 | 9.7 | 14.5 | 0.00 | 0.00 | 0.00 | 62 | 1006.3 |
| 20260506155251 | 20 | 121 | 6.4 | 11.3 | 0.00 | 0.00 | 0.00 | 62 | 1006.5 |
| 20260506153358 | 20 | 92 | 0.0 | 6.4 | 0.00 | 0.00 | 0.00 | 64 | 1006.7 |
| 20260506152855 | 20 | 160 | 1.6 | 12.9 | 0.00 | 0.00 | 0.00 | 64 | 1006.8 |
| 20260506152352 | 20 | 48 | 3.2 | 9.7 | 0.00 | 0.00 | 0.00 | 64 | 1006.9 |
| 20260506151850 | 20 | 120 | 1.6 | 12.9 | 0.00 | 0.00 | 0.00 | 65 | 1006.9 |
| 20260506151347 | 20 | 207 | 4.8 | 11.3 | 0.00 | 0.00 | 0.00 | 64 | 1007.0 |
| 20260506150844 | 20 | 237 | 4.8 | 9.7 | 0.00 | 0.00 | 0.00 | 65 | 1007.1 |